Time,TemperatureF,DewpointF,PressureIn,WindDirection,WindDirectionDegrees,WindSpeedMPH,WindSpeedGustMPH,Humidity,HourlyPrecipIn,Conditions,Clouds,dailyrainin,SoftwareType,DateUTC
2013-08-13 00:21:00,84.0,39.0,29.76,East,83,1.0,5.0,20,0.00,,,0.00,,2013-08-13 07:21:00,
2013-08-13 00:52:00,83.0,38.0,29.76,East,85,0.0,4.0,20,0.00,,,0.00,,2013-08-13 07:52:00,
2013-08-13 01:21:00,81.0,39.0,29.76,East,85,0.0,1.0,22,0.00,,,0.00,,2013-08-13 08:21:00,
2013-08-13 01:51:00,78.0,40.0,29.76,East,85,0.0,2.0,26,0.00,,,0.00,,2013-08-13 08:51:00,
2013-08-13 02:21:00,77.0,42.0,29.77,East,85,0.0,1.0,29,0.00,,,0.00,,2013-08-13 09:21:00,
2013-08-13 02:53:00,75.0,41.0,29.76,East,85,0.0,1.0,29,0.00,,,0.00,,2013-08-13 09:53:00,
2013-08-13 03:23:00,75.0,42.0,29.76,East,85,0.0,0.0,31,0.00,,,0.00,,2013-08-13 10:23:00,
2013-08-13 03:52:00,73.0,43.0,29.77,East,85,0.0,1.0,34,0.00,,,0.00,,2013-08-13 10:52:00,
2013-08-13 04:22:00,72.0,43.0,29.77,East,85,0.0,0.0,35,0.00,,,0.00,,2013-08-13 11:22:00,
2013-08-13 04:52:00,70.0,43.0,29.76,East,85,0.0,0.0,38,0.00,,,0.00,,2013-08-13 11:52:00,
2013-08-13 05:21:00,70.0,44.0,29.77,East,85,0.0,0.0,39,0.00,,,0.00,,2013-08-13 12:21:00,
2013-08-13 05:52:00,69.0,44.0,29.79,East,85,0.0,1.0,41,0.00,,,0.00,,2013-08-13 12:52:00,
2013-08-13 06:21:00,70.0,44.0,29.80,East,84,0.0,2.0,39,0.00,,,0.00,,2013-08-13 13:21:00,
2013-08-13 06:52:00,73.0,45.0,29.82,East,84,0.0,0.0,37,0.00,,,0.00,,2013-08-13 13:52:00,
2013-08-13 07:21:00,75.0,48.0,29.83,East,86,0.0,0.0,39,0.00,,,0.00,,2013-08-13 14:21:00,
2013-08-13 07:52:00,81.0,48.0,29.83,East,86,0.0,1.0,32,0.00,,,0.00,,2013-08-13 14:52:00,
2013-08-13 08:21:00,84.0,44.0,29.83,East,84,0.0,2.0,25,0.00,,,0.00,,2013-08-13 15:21:00,
2013-08-13 08:54:00,87.0,44.0,29.84,East,83,0.0,2.0,22,0.00,,,0.00,,2013-08-13 15:54:00,
2013-08-13 09:23:00,89.0,43.0,29.83,West,262,1.0,3.0,20,0.00,,,0.00,,2013-08-13 16:23:00,
2013-08-13 09:54:00,92.0,42.0,29.83,SW,235,1.0,4.0,18,0.00,,,0.00,,2013-08-13 16:54:00,
2013-08-13 10:27:00,92.0,41.0,29.83,NNW,336,1.0,4.0,17,0.00,,,0.00,,2013-08-13 17:27:00,
2013-08-13 10:46:00,-999.0,-99.9,29.82,SW,214,1.0,4.0,-999,0.00,,,0.00,,2013-08-13 17:46:00,
2013-08-13 10:56:00,95.0,42.0,29.82,SW,214,1.0,4.0,16,0.00,,,0.00,,2013-08-13 17:56:00,
2013-08-13 11:25:00,97.0,40.0,29.82,NW,310,3.0,8.0,14,0.00,,,0.00,,2013-08-13 18:25:00,
2013-08-13 11:56:00,99.0,40.0,29.81,SW,236,3.0,9.0,13,0.00,,,0.00,,2013-08-13 18:56:00,
2013-08-13 12:24:00,99.0,41.0,29.80,WSW,251,5.0,10.0,14,0.00,,,0.00,,2013-08-13 19:24:00,
2013-08-13 12:55:00,100.0,42.0,29.78,SSW,197,3.0,8.0,14,0.00,,,0.00,,2013-08-13 19:55:00,
2013-08-13 13:22:00,101.0,41.0,29.77,WNW,289,3.0,9.0,13,0.00,,,0.00,,2013-08-13 20:22:00,
2013-08-13 13:53:00,103.0,43.0,29.76,NW,306,5.0,11.0,13,0.00,,,0.00,,2013-08-13 20:53:00,
2013-08-13 14:24:00,103.0,41.0,29.74,NW,317,4.0,11.0,12,0.00,,,0.00,,2013-08-13 21:24:00,
2013-08-13 14:54:00,105.0,42.0,29.72,SW,223,5.0,12.0,12,0.00,,,0.00,,2013-08-13 21:54:00,
2013-08-13 15:22:00,102.0,42.0,29.71,West,276,4.0,11.0,13,0.00,,,0.00,,2013-08-13 22:22:00,
2013-08-13 15:56:00,103.0,41.0,29.70,West,265,6.0,15.0,12,0.00,,,0.00,,2013-08-13 22:56:00,
2013-08-13 16:26:00,103.0,41.0,29.69,WSW,240,6.0,12.0,12,0.00,,,0.00,,2013-08-13 23:26:00,
2013-08-13 16:56:00,103.0,38.0,29.68,West,268,8.0,14.0,11,0.00,,,0.00,,2013-08-13 23:56:00,
2013-08-13 17:21:00,102.0,40.0,29.68,West,259,7.0,17.0,12,0.00,,,0.00,,2013-08-14 00:21:00,
2013-08-13 17:52:00,101.0,41.0,29.67,West,276,7.0,15.0,13,0.00,,,0.00,,2013-08-14 00:52:00,
2013-08-13 18:21:00,100.0,40.0,29.67,West,261,7.0,12.0,13,0.00,,,0.00,,2013-08-14 01:21:00,
2013-08-13 18:52:00,98.0,41.0,29.67,WSW,245,6.0,13.0,14,0.00,,,0.00,,2013-08-14 01:52:00,
2013-08-13 19:21:00,96.0,39.0,29.67,West,272,3.0,8.0,14,0.00,,,0.00,,2013-08-14 02:21:00,
2013-08-13 19:52:00,93.0,42.0,29.67,WSW,241,0.0,0.0,17,0.00,,,0.00,,2013-08-14 02:52:00,
2013-08-13 20:22:00,91.0,40.0,29.69,ESE,112,1.0,4.0,17,0.00,,,0.00,,2013-08-14 03:22:00,
2013-08-13 20:53:00,90.0,41.0,29.70,ESE,107,1.0,4.0,18,0.00,,,0.00,,2013-08-14 03:53:00,
2013-08-13 21:12:00,91.0,42.0,29.71,ESE,112,0.0,4.0,18,0.00,,,0.00,,2013-08-14 04:12:00,
2013-08-13 21:22:00,89.0,41.0,29.72,ESE,110,0.0,0.0,19,0.00,,,0.00,,2013-08-14 04:22:00,
2013-08-13 21:52:00,88.0,41.0,29.73,ESE,105,1.0,4.0,19,0.00,,,0.00,,2013-08-14 04:52:00,
2013-08-13 22:22:00,87.0,42.0,29.73,ESE,105,0.0,3.0,21,0.00,,,0.00,,2013-08-14 05:22:00,
2013-08-13 22:52:00,84.0,43.0,29.73,ESE,105,0.0,1.0,24,0.00,,,0.00,,2013-08-14 05:52:00,
2013-08-13 23:21:00,83.0,44.0,29.73,ESE,105,0.0,1.0,25,0.00,,,0.00,,2013-08-14 06:21:00,
2013-08-13 23:52:00,83.0,44.0,29.74,ESE,103,0.0,3.0,25,0.00,,,0.00,,2013-08-14 06:52:00,